Location: Krakow
(50.0212°N, 19.9423°E)
Time: 00:43:03
(UTC+02:00)

UWE-3 - Visible Passes

Search period start: 25 April 2024 00:00
Search period end: 05 May 2024 00:00
Orbit: 569 x 656 km, 97.8° (Epoch: 23 April)

Date Brightness Start Highest point End Pass type
(mag) Time Alt. Az. Time Alt. Az. Time Alt. Az.
25 Apr ? 02:05:36 10° NE 02:08:07 15° E 02:10:13 11° ESE visible
25 Apr ? 03:40:17 10° N 03:44:31 68° WNW 03:47:14 22° SSW visible
26 Apr ? 02:19:55 10° NE 02:23:10 21° E 02:25:23 15° SE visible
26 Apr ? 03:55:15 10° N 03:59:23 48° WNW 04:02:24 18° SW visible
27 Apr ? 02:34:25 10° NE 02:38:10 28° E 02:40:32 18° SE visible
27 Apr ? 04:10:16 10° N 04:14:11 36° WNW 04:17:33 14° SW visible
28 Apr ? 02:49:03 10° NNE 02:53:06 39° E 02:55:39 20° SSE visible
28 Apr ? 04:25:20 10° N 04:28:56 27° WNW 04:32:37 10° WSW visible
29 Apr ? 03:03:45 10° NNE 03:08:00 54° E 03:10:45 21° S visible
29 Apr ? 04:40:27 10° NNW 04:43:39 21° WNW 04:46:53 10° WSW visible
30 Apr ? 03:18:29 10° NNE 03:22:50 76° ESE 03:25:50 20° S visible
01 May ? 01:58:58 10° ENE 02:01:09 13° E 02:03:21 10° ESE visible
01 May ? 03:33:16 10° NNE 03:37:38 79° WNW 03:40:53 18° SSW visible
02 May ? 02:13:00 10° NE 02:16:05 18° E 02:18:55 11° SE visible
02 May ? 03:48:05 10° N 03:52:22 57° WNW 03:55:55 15° SSW visible
03 May ? 02:27:20 10° NE 02:30:58 25° E 02:33:55 13° SE visible
03 May ? 04:02:57 10° N 04:07:03 42° WNW 04:10:55 12° SW visible
04 May ? 02:41:47 10° NNE 02:45:48 34° E 02:48:54 15° SSE visible
04 May ? 04:17:50 10° N 04:21:42 31° WNW 04:25:37 10° SW visible
